Location: Chena
(64.8152°N, 147.9227°W)
Time: 13:01:11
(UTC+00:00)

N. Korean satellite - Pass Details

Date: 27 January 2021
Orbit: 451 x 503 km, 97.2° (Epoch: 28 February)

Event Time Altitude Azimuth Distance (km) Brightness Sun altitude
Rises 16:18:21 0° 17° (NNE) 2,535 10.3 -15.0°
Reaches altitude 10° 16:20:26 10° 14° (NNE) 1,644 9.3 -14.8°
Maximum altitude 16:23:55 60° 294° (WNW) 538 6.4 -14.5°
Drops below altitude 10° 16:27:19 10° 214° (SW) 1,608 9.0 -14.1°
Sets 16:29:21 0° 211° (SSW) 2,473 10.0 -13.9°
